Preview of NWS' New Version of Forecast
This preview is not operational and should not be used for support decisions.

Regional Weather Roundup (RWR)

Issued by National Weather Service (NWS)

                            
000
ASUS46 KPQR 182310
RWROR 

OREGON REGIONAL WEATHER ROUNDUP
NATIONAL WEATHER SERVICE PORTLAND OR
400 PM PDT TUE JUN 18 2019

NOTE: "FAIR" INDICATES FEW OR NO CLOUDS BELOW 12,000 FEET WITH
NO SIGNIFICANT WEATHER AND/OR OBSTRUCTIONS TO VISIBILITY.

ORZ001>013-190000-
NORTHWEST OREGON

  
CITY           SKY/WX    TMP DP  RH WIND       PRES   REMARKS
ASTORIA        CLOUDY    61  49  64 NW15      30.30S                  
TILLAMOOK      SUNNY     63  46  55 NW22G30   30.30R                  
PORTLAND       MOSUNNY   72  49  44 NW17      30.22F                  
VANCOUVER WA   SUNNY     70  48  45 NW13      30.22S                  
SCAPPOOSE      SUNNY     70  49  47 NW15G24   30.22F                  
HILLSBORO      MOSUNNY   70  49  47 N14G22    30.22F                  
AURORA         MOSUNNY   74  51  44 VRB5      30.21F                  
MCMINNVILLE    MOSUNNY   75  52  44 MISG      30.19F                  
SALEM          MOSUNNY   76  50  40 N7        30.17F                  
CORVALLIS      MOSUNNY   77  54  44 VRB3      30.18F                  
EUGENE         MOSUNNY   78  54  43 N13       30.18F                  
$$

ORZ021-028-190000-
SOUTHWEST OREGON

  
CITY           SKY/WX    TMP DP  RH WIND       PRES   REMARKS
NORTH BEND     SUNNY     62  50  64 N31G39    30.25F                  
BROOKINGS      SUNNY     80  56  43 NW17G23   30.00F                  
ROSEBURG       SUNNY     83  51  33 NE10G22   30.13F                  
SEXTON SUMMIT  SUNNY     73  42  32 NW5       30.21F                  
GRANTS PASS    FAIR      86  37  17 N12       30.11S                  
MEDFORD        SUNNY     89  38  16 NW9G17    30.06F                  
$$

ORZ014>016-041-190000-
COLUMBIA GORGE

  
CITY           SKY/WX    TMP DP  RH WIND       PRES   REMARKS
TROUTDALE      SUNNY     73  49  42 W6        30.21F                  
HOOD RIVER     SUNNY     73  45  35 W13G20    30.13F                  
THE DALLES     SUNNY     78  47  33 W21G30    30.06F                  
$$

ORZ029>031-041-044-049-050-061>064-502-503-505>511-190000-
EASTERN OREGON

  
CITY           SKY/WX    TMP DP  RH WIND       PRES   REMARKS
MADRAS         SUNNY     77  34  20 NW23G30   30.13S                  
REDMOND        SUNNY     81  41  24 NE12G20   30.12F                  
BEND           SUNNY     81  32  17 N12G22    30.13S                  
PRINEVILLE     SUNNY     77  34  20 N12G20    30.13S                  
KLAMATH FALLS  SUNNY     85  40  20 NW15G22   30.12F                  
LAKEVIEW       SUNNY     82  43  25 SE10      30.14F                  
HERMISTON      MOSUNNY   86  45  23 W12       29.97F                  
PENDLETON      MOSUNNY   83  45  26 W15G22    30.00F                  
JOHN DAY       SUNNY     81  34  18 W17       30.10S                  
MEACHAM        SUNNY     73  43  33 CALM      30.11F                  
LA GRANDE      SUNNY     78  46  32 N12G21    30.05F                  
BAKER CITY     SUNNY     80  46  30 N12G20    30.05F                  
BURNS          SUNNY     83  34  17 NW17G24   30.10F                  
ROME             N/A     88  28  11 NW16G24   30.04F                  
ONTARIO        SUNNY     93  39  15 NW18G24   29.95F                  
$$